Total_Precipitation_Accumulation
2.09 2.53 2.68 2.78 3.16 3.46 3.67 3.58 3.77 4.19 4.47 4.85 4.88 5.12 5.59 5.93 6.02 6.06 6.01 5.91 5.85 5.89 5.77 5.60 5.75 5.58 5.33 5.12 5.11 5.09 4.95 4.57 4.53 4.55 4.05 3.32 2.84 2.62 2.45 2.50 2.62 2.50 2.46
1.94 2.42 2.66 3.04 3.34 3.45 3.70 3.83 3.97 4.47 4.95 5.51 6.04 6.42 6.87 6.91 7.03 6.93 6.80 6.42 6.24 6.19 6.00 6.05 5.87 5.68 5.59 5.30 5.10 5.08 4.96 4.57 4.63 4.66 4.65 3.83 3.23 2.55 1.99 2.14 2.22 2.22 2.30
1.97 2.32 2.64 3.01 3.33 3.51 3.75 3.91 4.25 4.86 5.68 6.29 6.79 7.33 7.67 7.42 7.22 6.90 6.72 6.57 6.53 6.47 6.34 6.34 6.06 5.84 5.61 5.26 4.99 4.87 4.79 4.66 4.65 4.52 4.65 4.08 3.36 2.78 2.23 1.93 1.87 2.01 2.19
1.95 2.23 2.55 2.88 3.20 3.55 3.68 3.89 4.55 5.23 5.89 6.54 7.17 7.71 7.94 7.92 7.71 7.15 6.65 6.27 6.02 5.78 5.71 5.76 5.65 5.47 5.17 4.94 4.60 4.50 4.45 4.63 4.43 4.38 4.16 3.86 3.52 3.30 2.81 2.31 2.06 2.07 2.05
1.93 2.13 2.40 2.66 2.84 3.22 3.63 3.95 4.63 5.39 6.06 6.84 7.58 7.94 8.09 8.04 7.66 6.88 6.13 5.60 5.27 4.98 4.78 4.83 4.78 4.62 4.43 4.27 4.20 4.28 4.18 4.12 3.94 3.85 3.88 3.94 3.86 3.44 3.07 2.69 2.42 2.31 2.16
1.82 1.90 2.18 2.37 2.66 3.03 3.48 4.01 4.38 5.04 5.86 6.47 6.98 7.11 7.21 7.15 6.74 6.30 5.79 5.40 4.91 4.45 4.09 3.97 3.92 3.74 3.58 3.59 3.62 3.73 3.70 3.74 3.75 3.68 3.55 3.57 3.58 3.34 3.23 2.89 2.60 2.54 2.32
1.76 2.01 2.29 2.26 2.56 2.94 3.38 3.88 4.31 4.76 5.37 5.94 6.36 6.54 6.65 6.55 6.07 5.62 5.17 4.73 4.20 3.80 3.50 3.33 3.29 3.18 3.11 3.11 3.28 3.41 3.35 3.32 3.37 3.33 3.26 3.22 3.16 3.14 3.13 3.21 2.94 2.60 2.27
1.84 1.96 2.11 2.23 2.56 2.83 3.12 3.52 3.87 4.28 4.55 4.86 5.32 5.55 5.70 5.52 5.16 4.71 4.18 3.85 3.51 3.16 3.00 2.90 2.83 2.76 2.66 2.61 2.84 2.96 3.02 3.04 3.09 3.02 3.17 3.13 3.02 3.04 2.99 3.05 3.18 3.00 2.62
1.79 1.98 2.18 2.34 2.52 2.85 3.28 3.49 3.50 3.71 3.96 4.26 4.47 4.53 4.59 4.48 4.24 3.96 3.62 3.25 2.93 2.64 2.52 2.48 2.47 2.44 2.40 2.44 2.65 2.69 2.64 2.73 2.74 2.78 2.93 2.91 2.87 2.94 2.90 2.99 3.19 3.35 3.13
1.84 1.97 2.10 2.30 2.39 2.48 2.83 3.16 3.24 3.35 3.42 3.54 3.62 3.57 3.70 3.62 3.54 3.37 3.11 2.82 2.60 2.37 2.33 2.28 2.26 2.28 2.23 2.23 2.38 2.46 2.51 2.53 2.50 2.61 2.81 2.83 2.75 2.92 3.01 3.09 3.14 3.20 3.25
2.05 2.03 2.00 2.02 2.20 2.33 2.50 2.79 3.02 3.03 3.04 3.18 3.19 3.11 3.23 3.23 3.23 3.09 2.88 2.76 2.69 2.56 2.38 2.26 2.33 2.32 2.24 2.19 2.23 2.13 2.23 2.34 2.42 2.46 2.56 2.65 2.74 2.89 2.93 3.00 3.02 3.10 3.16
1.88 1.84 1.80 1.80 1.89 2.11 2.39 2.63 2.80 2.71 2.73 2.87 3.01 3.07 3.12 3.06 2.96 2.75 2.62 2.55 2.43 2.29 2.25 2.22 2.26 2.25 2.17 2.16 2.08 1.95 2.03 2.19 2.28 2.33 2.40 2.43 2.52 2.65 2.60 2.70 2.71 2.75 2.87
1.97 1.85 1.77 1.80 1.85 1.92 2.09 2.33 2.59 2.68 2.62 2.59 2.62 2.78 2.81 2.70 2.60 2.53 2.49 2.41 2.28 2.21 2.23 2.25 2.24 2.24 2.21 2.20 2.13 2.09 2.05 1.98 1.98 2.07 2.11 2.14 2.25 2.24 2.17 2.19 2.18 2.28 2.39
2.13 1.94 1.88 1.84 1.83 1.90 1.95 2.05 2.21 2.37 2.49 2.54 2.69 2.75 2.69 2.57 2.47 2.32 2.17 2.08 2.01 2.05 2.15 2.11 2.05 2.03 1.97 1.89 1.94 1.98 1.94 1.84 1.78 1.78 1.77 1.74 1.72 1.73 1.79 1.80 1.87 2.03 2.34
2.02 1.95 1.95 2.00 1.95 1.89 1.93 1.98 2.14 2.19 2.39 2.53 2.51 2.45 2.41 2.38 2.36 2.29 2.13 2.01 1.89 1.79 1.92 1.91 1.86 1.81 1.68 1.56 1.61 1.68 1.68 1.73 1.69 1.65 1.61 1.53 1.53 1.56 1.53 1.43 1.61 1.90 2.22
1.92 1.91 1.88 1.96 1.87 1.79 1.77 1.80 2.00 2.05 2.13 2.25 2.26 2.18 2.17 2.30 2.32 2.26 2.11 2.02 1.92 1.81 1.81 1.81 1.71 1.58 1.35 1.37 1.40 1.39 1.46 1.58 1.66 1.62 1.51 1.43 1.43 1.38 1.32 1.29 1.40 1.59 1.80
2.09 2.13 2.20 2.18 2.01 1.86 1.79 1.86 1.97 2.04 2.09 2.11 2.03 2.05 2.06 2.06 2.10 1.98 1.89 1.90 1.93 1.81 1.70 1.62 1.53 1.41 1.33 1.31 1.25 1.28 1.36 1.47 1.56 1.58 1.59 1.37 1.20 1.33 1.30 1.33 1.36 1.37 1.45
2.48 2.51 2.49 2.26 2.06 1.97 1.92 1.96 1.96 2.00 2.11 2.04 1.91 1.85 1.88 1.84 1.86 1.88 1.87 1.86 1.86 1.78 1.69 1.56 1.47 1.40 1.27 1.25 1.20 1.22 1.25 1.42 1.46 1.47 1.49 1.53 1.47 1.39 1.41 1.38 1.36 1.31 1.35
2.53 2.50 2.44 2.26 2.04 1.92 1.87 1.86 1.90 1.85 1.86 1.78 1.73 1.65 1.63 1.69 1.74 1.75 1.86 1.87 1.79 1.72 1.60 1.51 1.50 1.47 1.32 1.26 1.18 1.25 1.31 1.40 1.38 1.30 1.30 1.28 1.27 1.31 1.38 1.45 1.51 1.48 1.42
2.12 2.21 2.24 2.15 1.96 1.81 1.75 1.79 1.82 1.80 1.74 1.70 1.68 1.58 1.56 1.60 1.64 1.66 1.74 1.72 1.73 1.72 1.57 1.49 1.51 1.50 1.46 1.31 1.15 1.23 1.25 1.25 1.26 1.29 1.24 1.18 1.09 1.09 1.10 1.17 1.42 1.57 1.48
1.84 1.89 2.10 2.14 1.92 1.72 1.68 1.74 1.74 1.71 1.56 1.53 1.61 1.65 1.63 1.61 1.61 1.63 1.66 1.66 1.66 1.71 1.68 1.63 1.62 1.60 1.53 1.37 1.21 1.19 1.18 1.16 1.18 1.21 1.19 1.14 1.01 0.88 0.90 1.03 1.23 1.37 1.40
1.72 1.75 1.90 1.84 1.70 1.61 1.71 1.77 1.72 1.59 1.53 1.58 1.72 1.74 1.75 1.61 1.55 1.72 1.75 1.68 1.67 1.63 1.69 1.71 1.68 1.63 1.55 1.36 1.20 1.13 1.09 1.10 1.13 1.18 1.17 1.12 1.03 0.89 0.90 0.98 1.12 1.22 1.35
1.61 1.67 1.74 1.69 1.59 1.57 1.70 1.80 1.71 1.57 1.62 1.72 1.78 1.82 1.73 1.72 1.69 1.74 1.75 1.68 1.66 1.58 1.54 1.54 1.54 1.50 1.42 1.27 1.14 1.09 1.04 1.05 1.03 1.04 1.06 1.04 1.04 1.03 1.06 1.11 1.14 1.23 1.43
1.51 1.60 1.67 1.61 1.52 1.46 1.47 1.55 1.50 1.46 1.61 1.78 1.77 1.79 1.78 1.76 1.75 1.72 1.62 1.56 1.52 1.46 1.42 1.38 1.38 1.28 1.22 1.12 0.99 0.95 0.95 0.97 1.01 1.02 1.08 1.16 1.21 1.20 1.19 1.22 1.30 1.36 1.47
1.43 1.49 1.58 1.60 1.46 1.34 1.32 1.32 1.38 1.50 1.66 1.68 1.63 1.63 1.66 1.67 1.67 1.55 1.43 1.42 1.36 1.25 1.18 1.15 1.13 1.09 1.06 1.02 1.00 0.94 0.93 0.91 0.93 1.00 1.13 1.31 1.39 1.39 1.33 1.29 1.31 1.35 1.39
1.39 1.48 1.46 1.43 1.33 1.21 1.17 1.21 1.29 1.37 1.51 1.51 1.46 1.45 1.52 1.55 1.49 1.46 1.33 1.23 1.13 1.14 1.08 1.04 1.06 1.05 1.05 0.97 0.86 0.87 0.88 0.92 1.05 1.09 1.26 1.40 1.46 1.47 1.33 1.27 1.23 1.22 1.24